Tracking 19847 objects as of 16-Sep-2019
HD Live streaming from Space Station
objects crossing your sky now

FENGYUN 1C DEB

Track FENGYUN 1C DEB now!
10-day predictions


NORAD ID: 30287
Int'l Code: 1999-025YY
Perigee: 715.0 km
Apogee: 1,364.8 km
Inclination: 98.7 °
Period: 105.8 minutes
Semi major axis: 7410 km
RCS: 0.0604 m2 (small)
Launch date: May 10, 1999
Source: People's Republic of China (PRC)
Launch site: Taiyaun Space Center, China (TSC)

Note: This is SATELLITE DEBRIS
aabbcc
Your satellite tracking list
Your tracking list is empty




NASA's NSSDC Master Catalog

Two Line Element Set (TLE):
1 30287U 99025YY  19258.68281179 -.00000020 +00000-0 +14345-4 0  9996
2 30287 098.6775 143.4322 0438391 255.0833 170.3282 13.60808469627910
Source of the keplerian elements: AFSPC